Venez nous rendre visite !

Club Aérien Lille Métropole

Horaires

Mardi : 10h30 - 12h 30 / 13h - 18h
Mercredi : 13h - 20h
Jeudi : 10h30 - 12h 30 / 13h - 18h
Vendredi : 10h30 - 12h 30 / 13h - 18h
Samedi : 10h30 - 12h 30 / 13h - 18h

La météo actuelle sur la plateforme de Lesquin LFQQ

TAF LFQQ
LFQQ 131700Z 1318/1424 26015KT 9999 SCT030 BECMG 1321/1324 20015KT BECMG 1403/1406 RA OVC012 TEMPO 1406/1418 20023G35KT 3000 OVC007 FM141800 27020G30KT 9999 RA BKN015 OVC080 BECMG 1418/1420 NSW SCT030

Venir nous rencontrer

Route de l’Aéroport

59810 Lesquin

Téléphone : 03 20 60 18 54

Du mardi au samedi de 10h30 à 12h30

et de 13h à 18h

Suivre notre actualité